Location: Newark
(22.8000°N, 86.1800°E)
Time: 08:21:19
(UTC+00:00)

UWE-3 - Visible Passes

Search period start: 06 June 2020 00:00
Search period end: 16 June 2020 00:00
Orbit: 585 x 683 km, 97.6° (Epoch: 05 June)

Date Brightness Start Highest point End Pass type
(mag) Time Alt. Az. Time Alt. Az. Time Alt. Az.
06 Jun ? 22:44:32 10° NNE 22:48:45 34° E 22:52:59 10° SSE visible
09 Jun ? 22:14:31 10° ENE 22:16:58 14° E 22:19:23 10° SE visible
10 Jun ? 22:34:42 10° NE 22:38:36 26° E 22:42:28 10° SSE visible
11 Jun ? 22:55:40 10° NNE 23:00:11 49° E 23:04:40 10° S visible
13 Jun ? 22:06:01 10° E 22:06:45 10° E 22:07:30 10° ESE visible
14 Jun ? 22:25:01 10° NE 22:28:25 20° E 22:31:46 10° SE visible
15 Jun ? 22:45:43 10° NNE 22:50:02 37° E 22:54:16 10° SSE visible
